This is the latest recevied weather packets stored in our database for station/object K7GFH-13. If no packets are shown the sender has not sent any weather packets the latest 10 day(s).
| Time | Temp. | Humidity | Pressure | Rain* | Wind** | Luminosity | Snow |
|---|---|---|---|---|---|---|---|
| 1777999708 | 11.67° C | 91% | 1018.4 hPa | 0 mm | - | 131 W/m² | - |
| 1777998808 | 11.67° C | 91% | 1018.2 hPa | 0 mm | - | 81 W/m² | - |
| 1777997905 | 11.67° C | 92% | 1018.2 hPa | 0 mm | - | 68 W/m² | - |
| 1777997003 | 11.11° C | 93% | 1018.2 hPa | 0 mm | - | 66 W/m² | - |
| 1777996104 | 11.11° C | 95% | 1018.2 hPa | 0 mm | - | 68 W/m² | - |
| 1777995199 | 11.11° C | 95% | 1018.1 hPa | 0 mm | - | 54 W/m² | - |
| 1777994299 | 11.11° C | 96% | 1018 hPa | 0 mm | - | 48 W/m² | - |
| 1777993396 | 11.11° C | 96% | 1018 hPa | 0 mm | - | 40 W/m² | - |
| 1777992492 | 10.56° C | 96% | 1017.9 hPa | 0 mm | - | 34 W/m² | - |
| 1777991591 | 10.56° C | 96% | 1017.6 hPa | 0 mm | - | 29 W/m² | - |
| 1777990689 | 10.56° C | 96% | 1017.5 hPa | 0 mm | - | 22 W/m² | - |
| 1777989784 | 10.56° C | 96% | 1017.5 hPa | 0 mm | - | 19 W/m² | - |
| 1777988879 | 11.11° C | 96% | 1017.4 hPa | 0 mm | - | 10 W/m² | - |
| 1777987976 | 11.11° C | 95% | 1017.1 hPa | 0 mm | - | 7 W/m² | - |
| 1777987073 | 11.11° C | 95% | 1017 hPa | 0 mm | - | 3 W/m² | - |
| 1777986171 | 11.11° C | 94% | 1017 hPa | 0 mm | - | 1 W/m² | - |
| 1777985268 | 11.11° C | 92% | 1017 hPa | 0 mm | - | 0 W/m² | - |
| 1777984363 | 11.67° C | 90% | 1017.1 hPa | 0 mm | - | 0 W/m² | - |
| 1777983459 | 11.67° C | 88% | 1017 hPa | 0 mm | - | 0 W/m² | - |
| 1777982554 | 11.67° C | 88% | 1017 hPa | 0 mm | - | 0 W/m² | - |
| 1777981654 | 11.67° C | 88% | 1016.9 hPa | 0 mm | - | 0 W/m² | - |
| 1777980749 | 11.67° C | 87% | 1016.8 hPa | 0 mm | - | 0 W/m² | - |
| 1777979849 | 11.67° C | 87% | 1016.8 hPa | 0 mm | - | 0 W/m² | - |
| 1777978944 | 11.67° C | 87% | 1016.7 hPa | 0 mm | - | 0 W/m² | - |
| 1777978039 | 12.22° C | 87% | 1016.6 hPa | 0 mm | - | 0 W/m² | - |
* Rain latest hour (hover to see other rain measurements)
** Current wind speed in m/s (hover to see current wind gust speed)